When you browse on this site, cookies collect data to enhance your experience and personalize the content and advertising you see.
Visit our Privacy Policy to learn more. By continuing to use the site, you agree to this use of cookies and data.
  • In Romania
  • List of Countries
  • For 7 days
  • Water Temperature
  • Weather Map
  • Weather Widgets
  • user-avatar
    Login

    Hourly Weather Gabú

    Today, 18 November, Monday

    Time Temperature Precipitation Wind Pressure Humidity
    00:00 +29°C° 0 mm 1 mps 751 mmHg 57%
    01:00 +28°C° 0 mm 1 mps 751 mmHg 59%
    02:00 +28°C° 0 mm 1 mps 751 mmHg 62%
    03:00 +27°C° 0 mm 1 mps 751 mmHg 60%
    04:00 +27°C° 0 mm 1 mps 750 mmHg 58%
    05:00 +27°C° 0 mm 1 mps 751 mmHg 54%
    06:00 +28°C° 0 mm 1 mps 751 mmHg 50%
    07:00 +29°C° 0 mm 1 mps 751 mmHg 46%
    08:00 +28°C° 0 mm 0 mps 752 mmHg 42%
    09:00 +33°C° 0 mm 1 mps 751 mmHg 37%
    10:00 +35°C° 0 mm 1 mps 751 mmHg 32%
    11:00 +39°C° 0 mm 1 mps 751 mmHg 29%
    12:00 +39°C° 0 mm 1 mps 750 mmHg 27%
    13:00 +40°C° 0 mm 1 mps 750 mmHg 25%
    14:00 +40°C° 0 mm 1 mps 749 mmHg 24%
    15:00 +39°C° 0 mm 1 mps 749 mmHg 28%
    16:00 +36°C° 0 mm 1 mps 749 mmHg 31%
    17:00 +34°C° 0 mm 1 mps 749 mmHg 35%
    18:00 +33°C° 0 mm 1 mps 750 mmHg 37%
    19:00 +32°C° 0 mm 1 mps 751 mmHg 38%
    20:00 +30°C° 0 mm 1 mps 751 mmHg 40%
    21:00 +30°C° 0 mm 1 mps 751 mmHg 41%
    22:00 +29°C° 0 mm 1 mps 751 mmHg 43%
    23:00 +29°C° 0 mm 1 mps 751 mmHg 44%

    Tomorrow, 19 November, Tuesday

    Time Temperature Precipitation Wind Pressure Humidity
    00:00 +28°C° 0 mm 1 mps 751 mmHg 48%
    01:00 +27°C° 0 mm 1 mps 751 mmHg 53%
    02:00 +26°C° 0 mm 1 mps 751 mmHg 57%
    03:00 +24°C° 0 mm 0 mps 751 mmHg 57%
    04:00 +23°C° 0 mm 0 mps 751 mmHg 58%
    05:00 +23°C° 0 mm 0 mps 751 mmHg 58%
    06:00 +24°C° 0 mm 0 mps 751 mmHg 52%
    07:00 +28°C° 0 mm 1 mps 752 mmHg 46%
    08:00 +29°C° 0 mm 1 mps 752 mmHg 40%
    09:00 +32°C° 0 mm 1 mps 752 mmHg 35%
    10:00 +35°C° 0 mm 2 mps 751 mmHg 30%
    11:00 +38°C° 0 mm 2 mps 751 mmHg 24%
    12:00 +38°C° 0 mm 2 mps 750 mmHg 24%
    13:00 +39°C° 0 mm 2 mps 750 mmHg 23%
    14:00 +40°C° 0 mm 2 mps 749 mmHg 22%
    15:00 +37°C° 0 mm 1 mps 749 mmHg 26%
    16:00 +36°C° 0 mm 1 mps 749 mmHg 30%
    17:00 +34°C° 0 mm 1 mps 749 mmHg 34%
    18:00 +33°C° 0 mm 1 mps 750 mmHg 35%
    19:00 +32°C° 0 mm 1 mps 750 mmHg 37%
    20:00 +30°C° 0 mm 1 mps 751 mmHg 38%
    21:00 +29°C° 0 mm 1 mps 751 mmHg 46%
    22:00 +28°C° 0 mm 1 mps 751 mmHg 53%
    23:00 +27°C° 0 mm 1 mps 751 mmHg 61%

    Day after tomorrow, 20 November, Wednesday

    Time Temperature Precipitation Wind Pressure Humidity
    00:00 +26°C° 0 mm 1 mps 751 mmHg 66%
    01:00 +26°C° 0 mm 1 mps 751 mmHg 72%
    02:00 +25°C° 0 mm 1 mps 751 mmHg 77%
    03:00 +25°C° 0 mm 1 mps 751 mmHg 81%
    04:00 +25°C° 0 mm 1 mps 751 mmHg 85%
    05:00 +24°C° 0 mm 1 mps 751 mmHg 89%
    06:00 +26°C° 0 mm 1 mps 751 mmHg 82%
    07:00 +28°C° 0 mm 1 mps 752 mmHg 76%
    08:00 +29°C° 0 mm 1 mps 752 mmHg 69%
    09:00 +32°C° 0 mm 1 mps 752 mmHg 58%
    10:00 +35°C° 0 mm 1 mps 752 mmHg 46%
    11:00 +39°C° 0 mm 1 mps 751 mmHg 35%
    12:00 +39°C° 0 mm 1 mps 751 mmHg 32%
    13:00 +37°C° 0 mm 0 mps 750 mmHg 29%
    14:00 +38°C° 0 mm 0 mps 750 mmHg 27%
    15:00 +36°C° 0 mm 0 mps 750 mmHg 30%
    16:00 +36°C° 0 mm 1 mps 750 mmHg 34%
    17:00 +34°C° 0 mm 1 mps 750 mmHg 37%
    18:00 +33°C° 0 mm 1 mps 750 mmHg 41%
    19:00 +31°C° 0 mm 1 mps 751 mmHg 45%
    20:00 +30°C° 0 mm 1 mps 752 mmHg 48%
    21:00 +29°C° 0 mm 2 mps 752 mmHg 56%
    22:00 +28°C° 0 mm 2 mps 752 mmHg 65%
    23:00 +27°C° 0 mm 2 mps 752 mmHg 73%

    21 November, Thursday

    Time Temperature Precipitation Wind Pressure Humidity
    00:00 +27°C° 0 mm 2 mps 752 mmHg 76%
    01:00 +26°C° 0 mm 1 mps 751 mmHg 80%
    02:00 +25°C° 0 mm 1 mps 751 mmHg 83%
    03:00 +25°C° 0 mm 1 mps 751 mmHg 84%
    04:00 +25°C° 0 mm 1 mps 751 mmHg 85%
    05:00 +25°C° 0 mm 1 mps 751 mmHg 87%
    06:00 +26°C° 0 mm 1 mps 752 mmHg 81%
    07:00 +28°C° 0 mm 1 mps 752 mmHg 74%
    08:00 +30°C° 0 mm 1 mps 753 mmHg 68%
    09:00 +33°C° 0 mm 1 mps 753 mmHg 56%
    10:00 +35°C° 0 mm 0 mps 752 mmHg 44%
    11:00 +38°C° 0 mm 0 mps 752 mmHg 32%
    12:00 +38°C° 0 mm 0 mps 751 mmHg 29%
    13:00 +41°C° 0 mm 1 mps 751 mmHg 27%
    14:00 +41°C° 0 mm 1 mps 750 mmHg 24%
    15:00 +40°C° 0 mm 1 mps 750 mmHg 27%
    16:00 +37°C° 0 mm 1 mps 750 mmHg 31%
    17:00 +35°C° 0 mm 1 mps 750 mmHg 34%
    18:00 +34°C° 0 mm 1 mps 750 mmHg 36%
    19:00 +32°C° 0 mm 1 mps 751 mmHg 38%
    20:00 +31°C° 0 mm 1 mps 751 mmHg 40%
    21:00 +29°C° 0 mm 1 mps 751 mmHg 50%
    22:00 +28°C° 0 mm 1 mps 751 mmHg 59%
    23:00 +27°C° 0 mm 1 mps 751 mmHg 69%

    22 November, Friday

    Time Temperature Precipitation Wind Pressure Humidity
    00:00 +26°C° 0 mm 1 mps 751 mmHg 73%
    01:00 +25°C° 0 mm 1 mps 751 mmHg 77%
    02:00 +25°C° 0 mm 1 mps 751 mmHg 81%
    03:00 +25°C° 0 mm 1 mps 751 mmHg 84%
    04:00 +24°C° 0 mm 1 mps 751 mmHg 86%
    05:00 +24°C° 0 mm 1 mps 751 mmHg 88%
    06:00 +26°C° 0 mm 1 mps 752 mmHg 80%
    07:00 +27°C° 0 mm 1 mps 752 mmHg 73%
    08:00 +29°C° 0 mm 1 mps 753 mmHg 66%
    09:00 +32°C° 0 mm 1 mps 753 mmHg 53%
    10:00 +35°C° 0 mm 1 mps 752 mmHg 41%
    11:00 +39°C° 0 mm 1 mps 752 mmHg 28%
    12:00 +39°C° 0 mm 1 mps 751 mmHg 25%
    13:00 +40°C° 0 mm 2 mps 750 mmHg 23%
    14:00 +40°C° 0 mm 2 mps 750 mmHg 20%
    15:00 +39°C° 0 mm 2 mps 750 mmHg 23%
    16:00 +36°C° 0 mm 1 mps 749 mmHg 27%
    17:00 +33°C° 0 mm 0 mps 749 mmHg 30%
    18:00 +33°C° 0 mm 1 mps 750 mmHg 32%
    19:00 +31°C° 0 mm 1 mps 750 mmHg 34%
    20:00 +30°C° 0 mm 1 mps 751 mmHg 36%
    21:00 +28°C° 0 mm 1 mps 751 mmHg 48%
    22:00 +27°C° 0 mm 1 mps 751 mmHg 59%
    23:00 +25°C° 0 mm 2 mps 751 mmHg 71%

    23 November, Saturday

    Time Temperature Precipitation Wind Pressure Humidity
    00:00 +25°C° 0 mm 1 mps 751 mmHg 76%
    01:00 +24°C° 0 mm 1 mps 751 mmHg 82%
    02:00 +24°C° 0 mm 1 mps 751 mmHg 88%
    03:00 +23°C° 0 mm 1 mps 751 mmHg 90%
    04:00 +23°C° 0 mm 1 mps 751 mmHg 92%
    05:00 +23°C° 0 mm 1 mps 751 mmHg 94%
    06:00 +23°C° 0 mm 0 mps 752 mmHg 85%
    07:00 +25°C° 0 mm 0 mps 752 mmHg 76%
    08:00 +27°C° 0 mm 0 mps 753 mmHg 66%
    09:00 +32°C° 0 mm 1 mps 753 mmHg 54%
    10:00 +35°C° 0 mm 2 mps 752 mmHg 41%
    11:00 +38°C° 0 mm 3 mps 752 mmHg 28%
    12:00 +39°C° 0 mm 3 mps 751 mmHg 26%
    13:00 +39°C° 0 mm 3 mps 750 mmHg 24%
    14:00 +40°C° 0 mm 3 mps 749 mmHg 21%
    15:00 +39°C° 0 mm 2 mps 749 mmHg 24%
    16:00 +36°C° 0 mm 1 mps 749 mmHg 27%
    17:00 +35°C° 0 mm 1 mps 749 mmHg 30%
    18:00 +31°C° 0 mm 0 mps 750 mmHg 31%
    19:00 +29°C° 0 mm 0 mps 750 mmHg 33%
    20:00 +27°C° 0 mm 0 mps 751 mmHg 34%
    21:00 +28°C° 0 mm 1 mps 751 mmHg 38%
    22:00 +28°C° 0 mm 1 mps 751 mmHg 42%
    23:00 +27°C° 0 mm 1 mps 751 mmHg 45%
    Show more